Location: DarkSkies Observatory
(42.5924°N, 71.9747°W)
Time: 18:49:53
(UTC-05:00)

ISS - Visible Passes

Search period start: 19 February 2018 00:00
Search period end: 01 March 2018 00:00
Orbit: 403 x 407 km, 51.6° (Epoch: 20 February)

Date Brightness Start Highest point End Pass type
(mag) Time Alt. Az. Time Alt. Az. Time Alt. Az.
23 Feb -0.2 06:01:54 10° SE 06:02:23 10° SE 06:02:53 10° ESE visible
25 Feb -1.4 05:51:21 10° S 05:54:02 24° SE 05:56:44 10° E visible
26 Feb -0.8 05:00:24 10° SSE 05:01:59 13° SE 05:03:34 10° ESE visible
27 Feb -3.2 05:42:35 10° SW 05:45:47 56° SE 05:49:00 10° ENE visible
28 Feb -2.1 04:51:46 17° S 04:53:35 29° SE 04:56:29 10° ENE visible
